Elizabeth City, NC

9:45 PM EST on November 22, 2017 (GMT -0500)
Elizabeth City Cgas-Regional

Weather History for KECG - March, 2013

Change the Weather History Date:

Wednesday, March 6, 2013

  Actual Average Record
Temperature  
Mean Temperature 46 °F 47 °F  
Max Temperature 55 °F 58 °F 82 °F (1967)
Min Temperature 37 °F 37 °F 20 °F (1960)
Degree Days  
Heating Degree Days 19 18  
Month to date heating degree days 135 110  
Since 1 July heating degree days 2144 2582  
Cooling Degree Days 0 0  
Month to date cooling degree days 0 0  
Year to date cooling degree days 5 2  
Moisture  
Dew Point 40 °F    
Average Humidity 80    
Maximum Humidity 89    
Minimum Humidity 70    
Precipitation  
Precipitation 0.63 in 0.11 in 1.87 in (1959)
Month to date precipitation 0.76 0.62  
Year to date precipitation 5.81 7.06  
Snow  
Snow T in - T in (1962)
Month to date snowfall T  
Since 1 July snowfall T  
Snow Depth 0.00 in    
Sea Level Pressure  
Sea Level Pressure 29.50 in    
Wind  
Wind Speed 21 mph (West)    
Max Wind Speed 36 mph    
Max Gust Speed 46 mph    
Visibility 7 miles    
Events Rain , Snow    
T = Trace of Precipitation, MM = Missing Value Source: NWS Daily Summary

Daily Weather History Graph

Daily Weather History Graph

Search for Another Location

Airport or City:

Trip Planner

Search our weather history database for the weather conditions in past years. The results will help you decide how hot, cold, wet, or windy it might be!

Date:

Astronomy

Mar. 06, 2013 Rise Set
Actual Time 6:27 AM EST 6:04 PM EST
Civil Twilight 6:02 AM EST 6:30 PM EST
Nautical Twilight 5:32 AM EST 6:59 PM EST
Astronomical Twilight 5:02 AM EST 7:29 PM EST
Moon 2:27 AM EST (3/6) 12:50 PM EST (3/6)
Length of Visible Light 12h 27m
Length of Day
11h 36m
Waning Crescent, 30% of the Moon is Illuminated
Mar 6
Waning Crescent
Mar 11
New
Mar 19
First Quarter
Mar 27
Full
Apr 3
Last Quarter

Hourly Weather History & Observations

Time (EST) Temp. Windchill Dew Point Humidity Pressure Visibility Wind Dir Wind Speed Gust Speed Precip Events Conditions
12:12 AM 50.0 °F - 46.4 °F 87% 29.68 in 3.0 mi East 18.4 mph 24.2 mph 0.10 in Rain Heavy Rain
12:41 AM 50.0 °F - 46.4 °F 87% 29.63 in 2.5 mi East 18.4 mph 25.3 mph 0.25 in Rain Heavy Rain
12:54 AM 51.1 °F - 46.9 °F 86% 29.64 in 4.0 mi SE 9.2 mph - 0.29 in Rain Rain
1:07 AM 51.8 °F - 46.4 °F 82% 29.65 in 2.5 mi Variable 5.8 mph - 0.09 in Rain Heavy Rain
1:24 AM 51.8 °F - 48.2 °F 88% 29.61 in 3.0 mi East 12.7 mph - 0.19 in Rain Rain
1:32 AM 51.8 °F - 48.2 °F 88% 29.60 in 4.0 mi Variable 5.8 mph - 0.20 in Rain Light Rain
1:54 AM 52.0 °F - 48.0 °F 86% 29.59 in 10.0 mi SE 15.0 mph 19.6 mph 0.20 in   Overcast
2:13 AM 53.6 °F - 48.2 °F 82% 29.55 in 10.0 mi ESE 13.8 mph - N/A   Overcast
2:50 AM 53.6 °F - 50.0 °F 88% 29.52 in 10.0 mi ESE 9.2 mph - 0.00 in   Overcast
2:54 AM 54.0 °F - 50.0 °F 86% 29.51 in 10.0 mi ESE 12.7 mph 17.3 mph 0.00 in   Overcast
3:08 AM 53.6 °F - 50.0 °F 88% 29.50 in 10.0 mi ESE 11.5 mph - N/A   Overcast
3:16 AM 53.6 °F - 50.0 °F 88% 29.49 in 10.0 mi ESE 13.8 mph - N/A   Overcast
3:54 AM 54.0 °F - 50.0 °F 86% 29.47 in 9.0 mi ESE 8.1 mph - N/A   Overcast
3:59 AM 53.6 °F - 50.0 °F 88% 29.46 in 9.0 mi ESE 8.1 mph - N/A   Overcast
4:22 AM 53.6 °F - 50.0 °F 88% 29.45 in 7.0 mi SSE 4.6 mph - N/A   Overcast
4:38 AM 55.4 °F - 50.0 °F 82% 29.45 in 9.0 mi SW 4.6 mph - N/A   Overcast
4:54 AM 54.0 °F - 48.9 °F 83% 29.44 in 9.0 mi Calm Calm - N/A   Mostly Cloudy
5:37 AM 53.6 °F - 48.2 °F 82% 29.43 in 10.0 mi SW 8.1 mph - N/A   Mostly Cloudy
5:54 AM 55.0 °F - 50.0 °F 83% 29.42 in 10.0 mi SW 9.2 mph - N/A   Mostly Cloudy
6:37 AM 53.6 °F - 48.2 °F 82% 29.41 in 10.0 mi WSW 15.0 mph 20.7 mph N/A   Mostly Cloudy
6:50 AM 53.6 °F - 46.4 °F 77% 29.41 in 10.0 mi WSW 8.1 mph - N/A   Mostly Cloudy
6:54 AM 53.1 °F - 46.9 °F 80% 29.41 in 10.0 mi WSW 13.8 mph 20.7 mph N/A   Mostly Cloudy
7:30 AM 51.8 °F - 44.6 °F 76% 29.42 in 10.0 mi WSW 17.3 mph - 0.00 in   Overcast
7:43 AM 48.2 °F - 41.0 °F 76% 29.43 in 10.0 mi WSW 18.4 mph 28.8 mph 0.00 in   Overcast
7:54 AM 46.9 °F - 39.9 °F 77% 29.43 in 10.0 mi WSW 19.6 mph 27.6 mph 0.00 in   Overcast
8:54 AM 44.1 °F 35.9 °F 35.1 °F 71% 29.46 in 10.0 mi WSW 19.6 mph 29.9 mph N/A   Overcast
9:54 AM 42.1 °F 33.1 °F 33.1 °F 70% 29.45 in 10.0 mi West 20.7 mph 32.2 mph N/A   Overcast
10:54 AM 43.0 °F 33.8 °F 33.1 °F 68% 29.45 in 10.0 mi WSW 23.0 mph 33.4 mph 0.00 in Rain Light Rain
11:22 AM 44.6 °F 35.7 °F 33.8 °F 66% 29.42 in 10.0 mi WSW 24.2 mph 34.5 mph 0.00 in   Overcast
11:54 AM 44.1 °F 35.4 °F 32.0 °F 63% 29.41 in 10.0 mi WSW 21.9 mph 40.3 mph 0.00 in   Overcast
12:11 PM 42.8 °F 32.7 °F 33.8 °F 70% 29.41 in 10.0 mi WSW 27.6 mph 39.1 mph 0.00 in Rain Light Rain
12:50 PM 41.0 °F 30.5 °F 35.6 °F 81% 29.39 in 10.0 mi WSW 26.5 mph 33.4 mph 0.00 in Rain Light Rain
12:54 PM 41.0 °F 30.7 °F 35.1 °F 79% 29.39 in 10.0 mi WSW 25.3 mph 34.5 mph 0.00 in Rain Light Rain
1:02 PM 39.2 °F 28.0 °F 33.8 °F 81% 29.39 in 6.0 mi WSW 26.5 mph 39.1 mph 0.01 in Rain Light Rain
1:10 PM 39.2 °F 29.6 °F 33.8 °F 81% 29.38 in 5.0 mi WSW 19.6 mph 36.8 mph 0.01 in Rain Light Rain
1:54 PM 39.9 °F 30.2 °F 35.1 °F 83% 29.37 in 6.0 mi WSW 20.7 mph 31.1 mph 0.05 in Rain Light Rain
2:22 PM 37.4 °F 26.9 °F 33.8 °F 87% 29.36 in 2.0 mi West 20.7 mph 34.5 mph 0.01 in Rain Rain
2:28 PM 37.4 °F 27.2 °F 33.8 °F 87% 29.36 in 2.0 mi West 19.6 mph 34.5 mph 0.02 in Rain Rain
2:35 PM 37.4 °F 26.9 °F 33.8 °F 87% 29.36 in 2.0 mi West 20.7 mph 32.2 mph 0.03 in Rain Rain
2:54 PM 39.0 °F 28.0 °F 34.0 °F 82% 29.37 in 3.0 mi West 25.3 mph 36.8 mph 0.03 in Rain Light Rain
3:50 PM 37.4 °F 25.9 °F 33.8 °F 87% 29.41 in 2.0 mi WNW 25.3 mph 38.0 mph 0.00 in Snow Light Snow
3:54 PM 37.9 °F 26.3 °F 33.1 °F 83% 29.42 in 1.8 mi WNW 26.5 mph 36.8 mph 0.01 in Snow Light Snow
4:03 PM 37.4 °F 25.0 °F 33.8 °F 87% 29.42 in 2.0 mi WNW 29.9 mph 34.5 mph 0.00 in Snow Light Snow
4:14 PM 37.4 °F 25.9 °F 33.8 °F 87% 29.43 in 3.0 mi WNW 25.3 mph 39.1 mph 0.01 in Snow Light Snow
4:19 PM 39.2 °F 29.0 °F 33.8 °F 81% 29.43 in 3.0 mi WNW 21.9 mph 39.1 mph 0.01 in Rain Light Rain
4:31 PM 39.2 °F 27.6 °F 33.8 °F 81% 29.45 in 7.0 mi WNW 28.8 mph 38.0 mph 0.01 in Rain Light Rain
4:54 PM 39.9 °F 29.2 °F 35.1 °F 83% 29.47 in 3.0 mi NW 25.3 mph 40.3 mph 0.01 in Rain Light Rain
5:02 PM 39.2 °F 28.5 °F 35.6 °F 87% 29.48 in 2.5 mi NW 24.2 mph 39.1 mph 0.00 in Rain Light Rain
5:11 PM 39.2 °F 28.0 °F 35.6 °F 87% 29.49 in 4.0 mi NW 26.5 mph 40.3 mph 0.00 in Rain Light Rain
5:22 PM 39.2 °F 27.6 °F 35.6 °F 87% 29.51 in 2.5 mi NW 28.8 mph 36.8 mph 0.00 in Rain Light Rain
5:30 PM 39.2 °F 27.6 °F 35.6 °F 87% 29.53 in 2.5 mi NW 28.8 mph 39.1 mph 0.00 in Rain Light Rain
5:38 PM 41.0 °F 30.5 °F 35.6 °F 81% 29.54 in 5.0 mi NW 26.5 mph 39.1 mph 0.00 in Rain Light Rain
5:54 PM 41.0 °F 30.0 °F 35.1 °F 79% 29.57 in 9.0 mi NW 28.8 mph 38.0 mph 0.01 in Rain Light Rain
6:43 PM 42.8 °F 32.1 °F 35.6 °F 76% 29.63 in 10.0 mi NW 31.1 mph 39.1 mph 0.01 in Rain Light Rain
6:54 PM 42.1 °F 31.3 °F 36.0 °F 79% 29.65 in 10.0 mi NW 29.9 mph 41.4 mph 0.01 in Rain Light Rain
7:54 PM 41.0 °F 30.9 °F 36.0 °F 82% 29.71 in 8.0 mi NW 24.2 mph 39.1 mph 0.00 in Rain Light Rain
8:41 PM 41.0 °F 29.5 °F 35.6 °F 81% 29.74 in 8.0 mi NNW 32.2 mph 46.0 mph 0.04 in Rain Light Rain
9:54 PM 42.1 °F 31.5 °F 36.0 °F 79% 29.79 in 10.0 mi NNW 28.8 mph 36.8 mph 0.01 in Rain Light Rain
10:54 PM 43.0 °F 33.3 °F 35.1 °F 74% 29.82 in 10.0 mi NNW 25.3 mph 42.6 mph 0.00 in Rain Light Rain
11:54 PM 44.1 °F 35.0 °F 35.1 °F 71% 29.83 in 10.0 mi NNW 24.2 mph 35.7 mph 0.00 in   Overcast